Station History

Weather Underground - logo

Station Historical Data
Daily Summary for January 10, 2018 Units:  Both    English   Metric
« Previous Day
Next Day »
Daily Weekly Monthly Yearly Custom
  High: Low: Average:
Temperature: 59.9 °F /  15.5 °C 45.7 °F /  7.6 °C 51.8 °F /  11 °C
Dew Point: 52.3 °F /  11.3 °C 44.4 °F /  6.9 °C 49.2 °F /  9.6 °C
Humidity: 96 % 76 % 91 %
Wind Speed: 4.6 mph /  7.4 km/h - 1 mph /  1.6 km/h
Wind Gust: 4.6 mph /  7.4 km/h - -
Wind:- - NW
Pressure: 30.25 in /  1024.3 hPa 30.01 in /  1016.1 hPa -
Precipitation: 0.00 in /  0 mm    
Historical Graphs
 
 
Tabular Data for January 10, 2018
Time Temperature Dew Point Pressure Wind Wind Speed Wind Gust Humidity Rainfall Rate (Hourly)
04:58 51.1 °F /  10.6 °C 50.0 °F /  10 °C 30.01 in /  1016.1 hPa Calm     96 % 0.00 in /  0 mm
05:12 51.2 °F /  10.7 °C 50.1 °F /  10.1 °C 30.02 in /  1016.5 hPa Calm     96 % 0.00 in /  0 mm
05:26 51.3 °F /  10.7 °C 49.9 °F /  9.9 °C 30.02 in /  1016.5 hPa Calm     95 % 0.00 in /  0 mm
05:43 51.7 °F /  10.9 °C 50.3 °F /  10.2 °C 30.03 in /  1016.8 hPa NW 1.2 mph /  1.9 km/h 1.2 mph /  1.9 km/h 95 % 0.00 in /  0 mm
05:56 51.9 °F /  11.1 °C 50.5 °F /  10.3 °C 30.04 in /  1017.2 hPa NW 1.0 mph /  1.6 km/h 1.0 mph /  1.6 km/h 95 % 0.00 in /  0 mm
06:05 52.0 °F /  11.1 °C 50.6 °F /  10.3 °C 30.04 in /  1017.2 hPa NW 1.2 mph /  1.9 km/h 1.2 mph /  1.9 km/h 95 % 0.00 in /  0 mm
06:17 52.0 °F /  11.1 °C 50.3 °F /  10.2 °C 30.05 in /  1017.5 hPa NW 1.0 mph /  1.6 km/h 1.0 mph /  1.6 km/h 94 % 0.00 in /  0 mm
06:23 52.1 °F /  11.2 °C 50.4 °F /  10.2 °C 30.06 in /  1017.8 hPa NNW 1.2 mph /  1.9 km/h 1.2 mph /  1.9 km/h 94 % 0.00 in /  0 mm
06:33 52.1 °F /  11.2 °C 50.4 °F /  10.2 °C 30.06 in /  1017.8 hPa Calm     94 % 0.00 in /  0 mm
06:39 52.2 °F /  11.2 °C 50.8 °F /  10.4 °C 30.06 in /  1017.8 hPa NW 1.2 mph /  1.9 km/h 1.2 mph /  1.9 km/h 95 % 0.00 in /  0 mm
06:47 52.2 °F /  11.2 °C 50.8 °F /  10.4 °C 30.07 in /  1018.2 hPa NW 1.2 mph /  1.9 km/h 1.2 mph /  1.9 km/h 95 % 0.00 in /  0 mm
07:04 52.2 °F /  11.2 °C 50.8 °F /  10.4 °C 30.08 in /  1018.5 hPa NW 1.2 mph /  1.9 km/h 1.2 mph /  1.9 km/h 95 % 0.00 in /  0 mm
07:21 52.1 °F /  11.2 °C 50.4 °F /  10.2 °C 30.09 in /  1018.8 hPa NW 1.2 mph /  1.9 km/h   94 % 0.00 in /  0 mm
07:28 52.1 °F /  11.2 °C 50.4 °F /  10.2 °C 30.09 in /  1018.8 hPa WNW 1.2 mph /  1.9 km/h 1.2 mph /  1.9 km/h 94 % 0.00 in /  0 mm
07:37 52.1 °F /  11.2 °C 50.4 °F /  10.2 °C 30.09 in /  1018.8 hPa NNW 2.3 mph /  3.7 km/h 2.3 mph /  3.7 km/h 94 % 0.00 in /  0 mm
07:47 52.0 °F /  11.1 °C 50.3 °F /  10.2 °C 30.10 in /  1019.2 hPa NW 2.3 mph /  3.7 km/h 2.3 mph /  3.7 km/h 94 % 0.00 in /  0 mm
07:53 51.9 °F /  11.1 °C 50.2 °F /  10.1 °C 30.10 in /  1019.2 hPa NW 2.3 mph /  3.7 km/h 2.3 mph /  3.7 km/h 94 % 0.00 in /  0 mm
08:09 51.6 °F /  10.9 °C 49.9 °F /  9.9 °C 30.09 in /  1018.8 hPa NW 2.0 mph /  3.2 km/h 2.0 mph /  3.2 km/h 94 % 0.00 in /  0 mm
08:21 51.7 °F /  10.9 °C 49.7 °F /  9.8 °C 30.10 in /  1019.2 hPa NW 2.3 mph /  3.7 km/h 2.3 mph /  3.7 km/h 93 % 0.00 in /  0 mm
08:29 52.0 °F /  11.1 °C 50.0 °F /  10 °C 30.11 in /  1019.5 hPa WNW 1.2 mph /  1.9 km/h 1.2 mph /  1.9 km/h 93 % 0.00 in /  0 mm
08:37 52.3 °F /  11.3 °C 50.3 °F /  10.2 °C 30.12 in /  1019.9 hPa NW 2.3 mph /  3.7 km/h 2.3 mph /  3.7 km/h 93 % 0.00 in /  0 mm
08:46 52.7 °F /  11.5 °C 50.7 °F /  10.4 °C 30.12 in /  1019.9 hPa NW 1.2 mph /  1.9 km/h 1.2 mph /  1.9 km/h 93 % 0.00 in /  0 mm
08:53 53.0 °F /  11.7 °C 50.4 °F /  10.2 °C 30.13 in /  1020.2 hPa NNW 2.3 mph /  3.7 km/h 2.3 mph /  3.7 km/h 91 % 0.00 in /  0 mm
09:00 53.2 °F /  11.8 °C 50.6 °F /  10.3 °C 30.14 in /  1020.5 hPa NW 2.3 mph /  3.7 km/h 2.3 mph /  3.7 km/h 91 % 0.00 in /  0 mm
09:07 53.6 °F /  12 °C 50.7 °F /  10.4 °C 30.15 in /  1020.9 hPa NW 2.3 mph /  3.7 km/h 2.3 mph /  3.7 km/h 90 % 0.00 in /  0 mm
09:14 54.0 °F /  12.2 °C 51.1 °F /  10.6 °C 30.15 in /  1020.9 hPa NNW 3.5 mph /  5.6 km/h 3.5 mph /  5.6 km/h 90 % 0.00 in /  0 mm
09:22 54.1 °F /  12.3 °C 50.9 °F /  10.5 °C 30.16 in /  1021.2 hPa NW 3.5 mph /  5.6 km/h 3.5 mph /  5.6 km/h 89 % 0.00 in /  0 mm
09:40 54.6 °F /  12.6 °C 51.4 °F /  10.8 °C 30.17 in /  1021.6 hPa NW 3.5 mph /  5.6 km/h 3.5 mph /  5.6 km/h 89 % 0.00 in /  0 mm
09:46 54.6 °F /  12.6 °C 51.1 °F /  10.6 °C 30.18 in /  1021.9 hPa NNW 2.3 mph /  3.7 km/h 2.3 mph /  3.7 km/h 88 % 0.00 in /  0 mm
09:52 54.7 °F /  12.6 °C 51.2 °F /  10.7 °C 30.18 in /  1021.9 hPa NNW 4.6 mph /  7.4 km/h 4.6 mph /  7.4 km/h 88 % 0.00 in /  0 mm
10:00 55.2 °F /  12.9 °C 51.4 °F /  10.8 °C 30.18 in /  1021.9 hPa NW 3.5 mph /  5.6 km/h 3.5 mph /  5.6 km/h 87 % 0.00 in /  0 mm
10:05 55.3 °F /  12.9 °C 51.2 °F /  10.7 °C 30.18 in /  1021.9 hPa NW 3.5 mph /  5.6 km/h 3.5 mph /  5.6 km/h 86 % 0.00 in /  0 mm
16:09 59.9 °F /  15.5 °C 52.3 °F /  11.3 °C 30.15 in /  1020.9 hPa NW 3.5 mph /  5.6 km/h 3.5 mph /  5.6 km/h 76 % 0.00 in /  0 mm
16:16 59.7 °F /  15.4 °C 52.1 °F /  11.2 °C 30.15 in /  1020.9 hPa NW 2.3 mph /  3.7 km/h 2.3 mph /  3.7 km/h 76 % 0.00 in /  0 mm
16:25 59.4 °F /  15.2 °C 51.8 °F /  11 °C 30.15 in /  1020.9 hPa NW 3.5 mph /  5.6 km/h 3.5 mph /  5.6 km/h 76 % 0.00 in /  0 mm
16:37 59.1 °F /  15.1 °C 52.2 °F /  11.2 °C 30.16 in /  1021.2 hPa NW 2.3 mph /  3.7 km/h 2.3 mph /  3.7 km/h 78 % 0.00 in /  0 mm
16:46 58.6 °F /  14.8 °C 51.8 °F /  11 °C 30.16 in /  1021.2 hPa North 3.5 mph /  5.6 km/h 3.5 mph /  5.6 km/h 78 % 0.00 in /  0 mm
16:52 58.2 °F /  14.6 °C 51.7 °F /  10.9 °C 30.16 in /  1021.2 hPa WNW 2.3 mph /  3.7 km/h   79 % 0.00 in /  0 mm
17:00 57.7 °F /  14.3 °C 51.6 °F /  10.9 °C 30.16 in /  1021.2 hPa Calm     80 % 0.00 in /  0 mm
17:06 57.4 °F /  14.1 °C 51.3 °F /  10.7 °C 30.16 in /  1021.2 hPa WNW 1.0 mph /  1.6 km/h 1.0 mph /  1.6 km/h 80 % 0.00 in /  0 mm
17:27 56.0 °F /  13.3 °C 50.9 °F /  10.5 °C 30.17 in /  1021.6 hPa Calm     83 % 0.00 in /  0 mm
17:36 55.4 °F /  13 °C 50.6 °F /  10.3 °C 30.16 in /  1021.2 hPa Calm     84 % 0.00 in /  0 mm
17:56 54.5 °F /  12.5 °C 50.7 °F /  10.4 °C 30.17 in /  1021.6 hPa Calm     87 % 0.00 in /  0 mm
18:02 54.5 °F /  12.5 °C 50.7 °F /  10.4 °C 30.17 in /  1021.6 hPa Calm     87 % 0.00 in /  0 mm
18:07 54.4 °F /  12.4 °C 50.9 °F /  10.5 °C 30.17 in /  1021.6 hPa Calm     88 % 0.00 in /  0 mm
18:14 54.3 °F /  12.4 °C 50.8 °F /  10.4 °C 30.17 in /  1021.6 hPa Calm     88 % 0.00 in /  0 mm
18:19 54.2 °F /  12.3 °C 50.7 °F /  10.4 °C 30.17 in /  1021.6 hPa Calm     88 % 0.00 in /  0 mm
18:45 53.3 °F /  11.8 °C 50.1 °F /  10.1 °C 30.17 in /  1021.6 hPa Calm     89 % 0.00 in /  0 mm
19:00 52.0 °F /  11.1 °C 49.5 °F /  9.7 °C 30.18 in /  1021.9 hPa Calm     91 % 0.00 in /  0 mm
19:24 50.8 °F /  10.4 °C 48.8 °F /  9.3 °C 30.19 in /  1022.2 hPa Calm     93 % 0.00 in /  0 mm
19:32 50.6 °F /  10.3 °C 48.7 °F /  9.3 °C 30.19 in /  1022.2 hPa Calm     93 % 0.00 in /  0 mm
19:46 50.3 °F /  10.2 °C 48.4 °F /  9.1 °C 30.19 in /  1022.2 hPa Calm     93 % 0.00 in /  0 mm
19:57 49.7 °F /  9.8 °C 47.8 °F /  8.8 °C 30.19 in /  1022.2 hPa Calm     93 % 0.00 in /  0 mm
20:03 49.4 °F /  9.7 °C 47.5 °F /  8.6 °C 30.20 in /  1022.6 hPa Calm     93 % 0.00 in /  0 mm
20:09 49.1 °F /  9.5 °C 47.2 °F /  8.4 °C 30.20 in /  1022.6 hPa Calm     93 % 0.00 in /  0 mm
20:21 48.7 °F /  9.3 °C 47.1 °F /  8.4 °C 30.21 in /  1022.9 hPa Calm     94 % 0.00 in /  0 mm
20:27 48.3 °F /  9.1 °C 46.7 °F /  8.2 °C 30.21 in /  1022.9 hPa Calm     94 % 0.00 in /  0 mm
20:35 48.1 °F /  8.9 °C 46.5 °F /  8.1 °C 30.21 in /  1022.9 hPa Calm     94 % 0.00 in /  0 mm
20:47 48.2 °F /  9 °C 46.6 °F /  8.1 °C 30.21 in /  1022.9 hPa Calm     94 % 0.00 in /  0 mm
20:52 48.2 °F /  9 °C 46.8 °F /  8.2 °C 30.21 in /  1022.9 hPa Calm     95 % 0.00 in /  0 mm
20:57 48.1 °F /  8.9 °C 46.5 °F /  8.1 °C 30.21 in /  1022.9 hPa Calm     94 % 0.00 in /  0 mm
21:02 48.0 °F /  8.9 °C 46.6 °F /  8.1 °C 30.22 in /  1023.2 hPa Calm     95 % 0.00 in /  0 mm
21:29 48.5 °F /  9.2 °C 47.1 °F /  8.4 °C 30.22 in /  1023.2 hPa Calm     95 % 0.00 in /  0 mm
21:35 48.4 °F /  9.1 °C 47.0 °F /  8.3 °C 30.22 in /  1023.2 hPa Calm     95 % 0.00 in /  0 mm
21:42 48.2 °F /  9 °C 46.8 °F /  8.2 °C 30.22 in /  1023.2 hPa Calm     95 % 0.00 in /  0 mm
21:58 47.9 °F /  8.8 °C 46.5 °F /  8.1 °C 30.22 in /  1023.2 hPa Calm     95 % 0.00 in /  0 mm
22:23 47.5 °F /  8.6 °C 46.1 °F /  7.8 °C 30.23 in /  1023.6 hPa Calm     95 % 0.00 in /  0 mm
22:29 47.3 °F /  8.5 °C 45.9 °F /  7.7 °C 30.23 in /  1023.6 hPa Calm     95 % 0.00 in /  0 mm
22:42 47.1 °F /  8.4 °C 45.7 °F /  7.6 °C 30.23 in /  1023.6 hPa Calm     95 % 0.00 in /  0 mm
22:52 46.8 °F /  8.2 °C 45.4 °F /  7.4 °C 30.23 in /  1023.6 hPa Calm     95 % 0.00 in /  0 mm
23:09 46.2 °F /  7.9 °C 44.8 °F /  7.1 °C 30.24 in /  1023.9 hPa Calm     95 % 0.00 in /  0 mm
23:21 45.8 °F /  7.7 °C 44.4 °F /  6.9 °C 30.25 in /  1024.3 hPa Calm     95 % 0.00 in /  0 mm
23:30 45.8 °F /  7.7 °C 44.4 °F /  6.9 °C 30.25 in /  1024.3 hPa Calm     95 % 0.00 in /  0 mm
23:35 45.7 °F /  7.6 °C 44.4 °F /  6.9 °C 30.25 in /  1024.3 hPa Calm     95 % 0.00 in /  0 mm
23:46 46.1 °F /  7.8 °C 45.0 °F /  7.2 °C 30.25 in /  1024.3 hPa Calm     96 % 0.00 in /  0 mm
23:52 46.3 °F /  7.9 °C 45.2 °F /  7.3 °C 30.25 in /  1024.3 hPa Calm     96 % 0.00 in /  0 mm
23:57 46.3 °F /  7.9 °C 45.2 °F /  7.3 °C 30.25 in /  1024.3 hPa Calm     96 % 0.00 in /  0 mm
Park Place, Exeter, Tulare County, California, USA
Compliments of Weather Underground - 1.5 mb